| time (UTC) | temp C | wind direction | speed KPH | gust KPH | rain 1hr cm | rain 24hr cm | rain mn cm | humidity % | barometer mb |
| 20260906174642 | 36 | 360 | 0.0 | 8.0 | 0.00 | 0.00 | 0.00 | 44 | 1012.7 |
| 20260906173031 | 36 | 360 | 3.2 | 9.7 | 0.00 | 0.00 | 0.00 | 47 | 1012.9 |
| 20260906171605 | 36 | 360 | 1.6 | 6.4 | 0.00 | 0.00 | 0.00 | 48 | 1013.1 |
| 20260906170023 | 36 | 360 | 1.6 | 9.7 | 0.00 | 0.00 | 0.00 | 51 | 1013.4 |
| 20260906164543 | 35 | 360 | 3.2 | 9.7 | 0.00 | 0.00 | 0.00 | 50 | 1013.5 |
| 20260906163019 | 35 | 360 | 8.0 | 14.5 | 0.00 | 0.00 | 0.00 | 53 | 1013.6 |
| 20260906161604 | 35 | 360 | 8.0 | 14.5 | 0.00 | 0.00 | 0.00 | 54 | 1013.6 |
| 20260906160037 | 34 | 360 | 1.6 | 14.5 | 0.00 | 0.00 | 0.00 | 56 | 1013.5 |
| 20260906154504 | 33 | 360 | 8.0 | 16.1 | 0.00 | 0.00 | 0.00 | 57 | 1013.4 |
| 20260906153106 | 32 | 360 | 1.6 | 12.9 | 0.00 | 0.00 | 0.00 | 61 | 1013.4 |
| 20260906151559 | 32 | 360 | 1.6 | 8.0 | 0.00 | 0.00 | 0.00 | 63 | 1013.5 |
| 20260906150114 | 31 | 360 | 4.8 | 8.0 | 0.00 | 0.00 | 0.00 | 65 | 1013.5 |
| 20260906144545 | 30 | 360 | 1.6 | 8.0 | 0.00 | 0.00 | 0.00 | 70 | 1013.6 |
| 20260906143055 | 29 | 360 | 1.6 | 8.0 | 0.00 | 0.00 | 0.00 | 71 | 1013.6 |
| 20260906141549 | 27 | 360 | 3.2 | 8.0 | 0.00 | 0.00 | 0.00 | 77 | 1013.4 |
| 20260906140025 | 26 | 360 | 1.6 | 6.4 | 0.00 | 0.00 | 0.00 | 84 | 1013.4 |
| 20260906134536 | 25 | 360 | 1.6 | 6.4 | 0.00 | 0.00 | 0.00 | 87 | 1013.2 |
| 20260906133114 | 23 | 360 | 1.6 | 6.4 | 0.00 | 0.00 | 0.00 | 90 | 1013.2 |
| 20260906131554 | 22 | 360 | 1.6 | 4.8 | 0.00 | 0.00 | 0.00 | 93 | 1013.2 |
| 20260906130016 | 21 | 360 | 0.0 | 1.6 | 0.00 | 0.00 | 0.00 | 93 | 1013.0 |
| 20260906124521 | 21 | 360 | 0.0 | 0.0 | 0.00 | 0.00 | 0.00 | 92 | 1012.8 |
| 20260906123048 | 21 | 360 | 0.0 | 1.6 | 0.00 | 0.00 | 0.00 | 92 | 1012.6 |
| 20260906121611 | 21 | 360 | 0.0 | 1.6 | 0.00 | 0.00 | 0.00 | 92 | 1012.7 |
| 20260906120013 | 21 | 360 | 0.0 | 1.6 | 0.00 | 0.00 | 0.00 | 91 | 1012.6 |
| 20260906114536 | 21 | 360 | 0.0 | 1.6 | 0.00 | 0.00 | 0.00 | 91 | 1012.6 |
| 20260906113059 | 21 | 360 | 0.0 | 3.2 | 0.00 | 0.00 | 0.00 | 91 | 1012.4 |
| 20260906111611 | 21 | 360 | 0.0 | 1.6 | 0.00 | 0.00 | 0.00 | 91 | 1012.4 |
| 20260906110046 | 21 | 360 | 0.0 | 1.6 | 0.00 | 0.00 | 0.00 | 91 | 1012.4 |
| 20260906104538 | 21 | 360 | 0.0 | 0.0 | 0.00 | 0.00 | 0.00 | 91 | 1012.3 |
| 20260906103013 | 21 | 360 | 0.0 | 1.6 | 0.00 | 0.00 | 0.00 | 90 | 1012.2 |
| 20260906101540 | 21 | 360 | 0.0 | 1.6 | 0.00 | 0.00 | 0.00 | 90 | 1012.2 |
| 20260906100006 | 22 | 360 | 0.0 | 1.6 | 0.00 | 0.00 | 0.00 | 90 | 1012.0 |
| 20260906094551 | 22 | 360 | 0.0 | 1.6 | 0.00 | 0.00 | 0.00 | 91 | 1012.0 |
| 20260906093047 | 22 | 360 | 0.0 | 1.6 | 0.00 | 0.00 | 0.00 | 91 | 1012.0 |
| 20260906091524 | 22 | 360 | 0.0 | 3.2 | 0.00 | 0.00 | 0.00 | 91 | 1011.8 |
| 20260906090026 | 22 | 360 | 3.2 | 4.8 | 0.00 | 0.00 | 0.00 | 91 | 1011.7 |
| 20260906084555 | 22 | 360 | 0.0 | 0.0 | 0.00 | 0.00 | 0.00 | 90 | 1011.6 |
| 20260906083051 | 22 | 104 | 0.0 | 1.6 | 0.00 | 0.00 | 0.00 | 90 | 1011.5 |
| 20260906081530 | 22 | 360 | 0.0 | 3.2 | 0.00 | 0.00 | 0.00 | 90 | 1011.6 |
| 20260906080041 | 22 | 360 | 0.0 | 3.2 | 0.00 | 0.00 | 0.00 | 89 | 1011.5 |
| 20260906074509 | 22 | 360 | 0.0 | 3.2 | 0.00 | 0.00 | 0.00 | 89 | 1011.5 |
| 20260906073048 | 22 | 360 | 0.0 | 3.2 | 0.00 | 0.00 | 0.00 | 89 | 1011.5 |
| 20260906070059 | 22 | 360 | 0.0 | 1.6 | 0.00 | 0.00 | 0.00 | 89 | 1011.6 |
| 20260906064601 | 22 | 360 | 0.0 | 3.2 | 0.00 | 0.00 | 0.00 | 88 | 1011.7 |
| 20260906063048 | 22 | 360 | 0.0 | 1.6 | 0.00 | 0.00 | 0.00 | 88 | 1011.8 |
| 20260906061546 | 23 | 360 | 0.0 | 1.6 | 0.00 | 0.00 | 0.00 | 88 | 1011.9 |
| 20260906060045 | 23 | 360 | 0.0 | 1.6 | 0.00 | 0.00 | 0.00 | 87 | 1012.1 |
| 20260906054506 | 23 | 360 | 0.0 | 1.6 | 0.00 | 0.00 | 0.00 | 87 | 1012.1 |
| 20260906053058 | 23 | 360 | 0.0 | 1.6 | 0.00 | 0.00 | 0.00 | 86 | 1012.1 |
| 20260906051511 | 23 | 360 | 0.0 | 3.2 | 0.00 | 0.00 | 0.00 | 85 | 1012.1 |
| 20260906050004 | 24 | 360 | 0.0 | 1.6 | 0.00 | 0.00 | 0.00 | 85 | 1012.0 |
| 20260906044532 | 24 | 360 | 0.0 | 0.0 | 0.00 | 0.00 | 0.00 | 83 | 1012.0 |
| 20260906043020 | 24 | 360 | 0.0 | 1.6 | 0.00 | 0.00 | 0.00 | 84 | 1012.0 |
| 20260906041517 | 25 | 360 | 0.0 | 1.6 | 0.00 | 0.00 | 0.00 | 82 | 1012.0 |
| 20260906040136 | 25 | 360 | 0.0 | 1.6 | 0.00 | 0.00 | 0.00 | 82 | 1011.9 |
| 20260906034529 | 25 | 360 | 0.0 | 1.6 | 0.00 | 0.00 | 0.00 | 80 | 1011.8 |
| 20260906033100 | 25 | 360 | 0.0 | 1.6 | 0.00 | 0.00 | 0.00 | 81 | 1011.7 |
| 20260906031531 | 26 | 360 | 0.0 | 3.2 | 0.00 | 0.00 | 0.00 | 79 | 1011.6 |
| 20260906030105 | 26 | 360 | 0.0 | 1.6 | 0.00 | 0.00 | 0.00 | 77 | 1011.2 |
| 20260906024508 | 27 | 360 | 0.0 | 1.6 | 0.00 | 0.00 | 0.00 | 77 | 1011.2 |
| 20260906023023 | 27 | 360 | 0.0 | 1.6 | 0.00 | 0.00 | 0.00 | 74 | 1011.0 |
| 20260906021559 | 28 | 360 | 0.0 | 1.6 | 0.00 | 0.00 | 0.00 | 73 | 1010.9 |
| 20260906020009 | 28 | 360 | 0.0 | 0.0 | 0.00 | 0.00 | 0.00 | 70 | 1010.6 |
| 20260906014606 | 29 | 360 | 0.0 | 1.6 | 0.00 | 0.00 | 0.00 | 67 | 1010.3 |
| 20260906013007 | 30 | 360 | 0.0 | 1.6 | 0.00 | 0.00 | 0.00 | 64 | 1010.2 |
| 20260906011521 | 31 | 360 | 0.0 | 0.0 | 0.00 | 0.00 | 0.00 | 62 | 1010.0 |
| 20260906010059 | 31 | 360 | 0.0 | 6.4 | 0.00 | 0.00 | 0.00 | 59 | 1009.9 |
| 20260906004604 | 33 | 360 | 0.0 | 1.6 | 0.00 | 0.00 | 0.00 | 58 | 1009.8 |
| 20260906003013 | 34 | 360 | 0.0 | 1.6 | 0.00 | 0.00 | 0.00 | 55 | 1009.8 |
| 20260906001525 | 35 | 360 | 0.0 | 0.0 | 0.00 | 0.00 | 0.00 | 48 | 1009.7 |
| 20260906000050 | 36 | 360 | 0.0 | 1.6 | 0.00 | 0.00 | 0.00 | 46 | 1009.9 |
| 20260905234608 | 36 | 360 | 0.0 | 3.2 | 0.00 | 0.00 | 0.00 | 43 | 1009.8 |
| 20260905233059 | 37 | 360 | 3.2 | 4.8 | 0.00 | 0.00 | 0.00 | 41 | 1009.7 |
| 20260905231605 | 37 | 360 | 3.2 | 6.4 | 0.00 | 0.00 | 0.00 | 39 | 1009.7 |
| 20260905230027 | 37 | 360 | 4.8 | 8.0 | 0.00 | 0.00 | 0.00 | 38 | 1009.7 |
| 20260905224608 | 37 | 360 | 3.2 | 8.0 | 0.00 | 0.00 | 0.00 | 39 | 1009.8 |
| 20260905223102 | 38 | 360 | 0.0 | 8.0 | 0.00 | 0.00 | 0.00 | 40 | 1009.8 |
| 20260905221541 | 38 | 360 | 3.2 | 9.7 | 0.00 | 0.00 | 0.00 | 36 | 1009.9 |
| 20260905220031 | 38 | 360 | 3.2 | 8.0 | 0.00 | 0.00 | 0.00 | 37 | 1010.0 |
| 20260905214601 | 38 | 360 | 3.2 | 9.7 | 0.00 | 0.00 | 0.00 | 37 | 1010.1 |
| 20260905213055 | 38 | 360 | 6.4 | 17.7 | 0.00 | 0.00 | 0.00 | 37 | 1010.2 |
| 20260905211538 | 38 | 360 | 4.8 | 14.5 | 0.00 | 0.00 | 0.00 | 36 | 1010.3 |
| 20260905210101 | 38 | 360 | 3.2 | 8.0 | 0.00 | 0.00 | 0.00 | 36 | 1010.5 |
| 20260905204513 | 38 | 360 | 1.6 | 8.0 | 0.00 | 0.00 | 0.00 | 37 | 1010.6 |
| 20260905203049 | 38 | 360 | 4.8 | 14.5 | 0.00 | 0.00 | 0.00 | 39 | 1010.9 |
| 20260905201548 | 38 | 360 | 3.2 | 12.9 | 0.00 | 0.00 | 0.00 | 39 | 1011.1 |
| 20260905200109 | 38 | 15 | 4.8 | 12.9 | 0.00 | 0.00 | 0.00 | 37 | 1011.3 |
| 20260905194608 | 38 | 360 | 4.8 | 14.5 | 0.00 | 0.00 | 0.00 | 38 | 1011.4 |
| 20260905193002 | 38 | 360 | 1.6 | 9.7 | 0.00 | 0.00 | 0.00 | 38 | 1011.6 |
| 20260905191519 | 38 | 360 | 4.8 | 12.9 | 0.00 | 0.00 | 0.00 | 38 | 1011.8 |
| 20260905190021 | 38 | 360 | 1.6 | 6.4 | 0.00 | 0.00 | 0.00 | 40 | 1012.0 |
| 20260905184525 | 37 | 360 | 3.2 | 9.7 | 0.00 | 0.00 | 0.00 | 40 | 1012.1 |
| 20260905183011 | 37 | 360 | 4.8 | 9.7 | 0.00 | 0.00 | 0.00 | 43 | 1012.3 |
| 20260905181541 | 37 | 360 | 6.4 | 9.7 | 0.00 | 0.00 | 0.00 | 41 | 1012.5 |
| 20260905180103 | 36 | 360 | 1.6 | 6.4 | 0.00 | 0.00 | 0.00 | 43 | 1012.7 |